History for KNYNEWYO206

West Chelsea, New York, NY — Current Conditions
Daily Summary for August 22, 2017
  Current: High: Low: Average:
Temperature: 97.0°F 99.9°F 75.0°F 87.4°F
Dew Point: 75.2°F 77.9°F 70.4°F 73.3°F
Humidity: 49% 88% 46% 75%
Wind Speed: - 0.0mph - 0.0mph
Wind Gust: - 0.0mph - -
Wind: North - - North
Pressure: 29.84in 30.14in 29.84in -
Precipitation: 0.00in      
Statistics for the rest of the month
    High: Low: Average:
Temperature:   100.0°F 64.2°F 78.8°F
Dew Point:   85.1°F 53.2°F 66.0°F
Humidity:   97.0% 37.0% 70.0%
Wind Speed:   0.0mph from the North - 0.0mph
Wind Gust:   0.0mph from the North - -
Wind:   - - North
Pressure:   30.29in 29.81in -
Precipitation:   0.00in    
KNYNEWYO206 Weather Graph
Tabular Data for August 22, 2017
Time Temp. Heat Index Dew Point Pressure Wind Gust Humidity Rainfall
00:17 79.0°F - 70.6°F 30.14in - 75% -
00:37 78.6°F - 70.6°F 30.14in - 76% -
00:47 78.6°F - 71.0°F 30.13in - 77% -
01:07 78.1°F - 70.4°F 30.13in - 77% -
01:17 77.9°F - 70.6°F 30.13in - 78% -
01:37 77.7°F - 70.8°F 30.12in - 79% -
01:47 77.5°F - 70.7°F 30.12in - 79% -
02:07 77.4°F - 70.5°F 30.11in - 79% -
02:17 77.4°F - 70.8°F 30.11in - 80% -
02:37 77.0°F - 70.5°F 30.11in - 80% -
02:47 77.0°F - 70.8°F 30.10in - 81% -
03:07 76.8°F - 70.7°F 30.10in - 81% -
03:17 76.6°F - 70.8°F 30.09in - 82% -
03:47 76.1°F - 70.7°F 30.08in - 83% -
04:17 75.7°F - 71.0°F 30.09in - 85% -
04:27 75.7°F - 71.0°F 30.09in - 85% -
04:38 75.6°F - 71.2°F 30.08in - 86% -
04:48 75.4°F - 71.0°F 30.08in - 86% -
05:17 75.4°F - 71.0°F 30.08in - 86% -
05:18 75.4°F - 71.3°F 30.08in - 87% -
05:27 75.4°F - 71.3°F 30.08in - 87% -
05:48 75.2°F - 71.1°F 30.08in - 87% -
06:18 75.0°F - 71.3°F 30.07in - 88% -
06:47 75.6°F - 71.8°F 30.08in - 88% -
06:48 75.6°F - 71.8°F 30.07in - 88% -
07:08 75.6°F - 71.8°F 30.07in - 88% -
07:18 75.7°F - 72.0°F 30.07in - 88% -
07:48 76.5°F - 72.1°F 30.07in - 86% -
07:58 76.5°F - 72.1°F 30.07in - 86% -
08:18 77.2°F - 73.1°F 30.06in - 87% -
08:38 77.9°F - 73.1°F 30.06in - 85% -
08:48 78.3°F - 73.1°F 30.06in - 84% -
09:08 78.8°F - 73.3°F 30.06in - 83% -
09:18 79.0°F - 73.5°F 30.05in - 83% -
09:39 79.5°F - 73.3°F 30.05in - 81% -
09:49 79.7°F - 73.5°F 30.05in - 81% -
10:29 80.8°F 85.8°F 73.8°F 30.04in - 79% -
10:49 82.0°F 88.0°F 74.3°F 30.03in - 77% -
10:57 82.0°F 88.0°F 74.3°F 30.03in - 77% -
11:19 82.9°F 89.6°F 74.4°F 30.03in - 75% -
11:29 82.9°F 89.6°F 74.4°F 30.03in - 75% -
11:49 83.8°F 91.3°F 74.9°F 30.01in - 74% -
11:58 83.8°F 91.3°F 74.9°F 30.01in - 74% -
12:19 84.6°F 92.5°F 74.8°F 30.00in - 72% -
12:27 84.6°F 92.5°F 74.8°F 30.00in - 72% -
12:49 85.6°F 94.5°F 75.4°F 29.99in - 71% -
12:58 85.6°F 94.5°F 75.4°F 29.99in - 71% -
13:19 88.5°F 100.4°F 76.9°F 29.98in - 68% -
13:28 88.5°F 100.4°F 76.9°F 29.98in - 68% -
13:49 91.9°F 105.1°F 76.9°F 29.97in - 61% -
13:58 91.9°F 105.1°F 76.9°F 29.97in - 61% -
14:20 95.4°F 110.0°F 77.1°F 29.95in - 55% -
14:28 95.4°F 110.0°F 77.1°F 29.95in - 55% -
14:50 96.8°F 113.0°F 77.9°F 29.93in - 54% -
14:58 96.8°F 113.0°F 77.9°F 29.93in - 54% -
15:10 97.9°F 114.3°F 77.8°F 29.91in - 52% -
15:40 99.3°F 116.3°F 77.4°F 29.88in - 49% -
16:10 99.7°F 114.6°F 76.5°F 29.87in - 47% -
16:40 99.9°F 114.2°F 76.0°F 29.86in - 46% -
17:10 98.6°F 111.7°F 75.5°F 29.86in - 47% -
17:40 97.0°F 109.3°F 75.2°F 29.84in - 49% -
Comma Delimited File
Powered by Weather Underground, Inc.